Radiation Dose at Monitoring Post of Fukushima Daini Nuclear Power Station
Date,Time,MP-1(microSv/h),MP-2(microSv/h),MP-3(microSv/h),MP-4(microSv/h),MP-5(microSv/h),MP-6(microSv/h),MP-7(microSv/h),Wind Direction,Wind Velocity(m/s),Rain
2021/01/10,00:00,0.179,0.161,0.261,0.245,0.240,0.143,0.087,northwest,4.7,No
2021/01/10,00:10,0.179,0.161,0.261,0.247,0.239,0.143,0.086,northwest,3.6,No
2021/01/10,00:20,0.180,0.160,0.261,0.246,0.241,0.142,0.086,northwest,3.0,No
2021/01/10,00:30,0.179,0.161,0.260,0.248,0.240,0.143,0.087,west-northwest,1.7,No
2021/01/10,00:40,0.179,0.161,0.262,0.247,0.240,0.143,0.088,northwest,1.3,No
2021/01/10,00:50,0.178,0.161,0.261,0.247,0.240,0.143,0.087,-,CALM,No
2021/01/10,01:00,0.179,0.161,0.261,0.247,0.241,0.142,0.087,northwest,0.7,No
2021/01/10,01:10,0.178,0.161,0.260,0.246,0.240,0.144,0.086,northwest,2.3,No
2021/01/10,01:20,0.178,0.161,0.261,0.247,0.242,0.142,0.087,northwest,4.2,No
2021/01/10,01:30,0.179,0.162,0.260,0.246,0.241,0.143,0.087,northwest,4.5,No
2021/01/10,01:40,0.179,0.161,0.261,0.247,0.241,0.143,0.087,northwest,3.9,No
2021/01/10,01:50,0.179,0.161,0.261,0.248,0.241,0.143,0.087,northwest,4.0,No
2021/01/10,02:00,0.179,0.161,0.261,0.248,0.240,0.143,0.087,northwest,5.2,No
2021/01/10,02:10,0.179,0.161,0.260,0.246,0.241,0.142,0.087,northwest,5.4,No
2021/01/10,02:20,0.178,0.161,0.260,0.247,0.241,0.142,0.086,northwest,5.6,No
2021/01/10,02:30,0.179,0.160,0.261,0.246,0.241,0.142,0.086,northwest,6.4,No
2021/01/10,02:40,0.179,0.160,0.260,0.247,0.241,0.142,0.087,northwest,6.4,No
2021/01/10,02:50,0.178,0.160,0.260,0.247,0.241,0.142,0.087,northwest,6.7,No
2021/01/10,03:00,0.178,0.160,0.260,0.247,0.241,0.142,0.087,northwest,6.6,No
2021/01/10,03:10,0.178,0.161,0.261,0.246,0.240,0.142,0.086,northwest,5.9,No
2021/01/10,03:20,0.179,0.160,0.262,0.245,0.239,0.142,0.087,northwest,5.6,No
2021/01/10,03:30,0.178,0.160,0.259,0.246,0.240,0.142,0.086,northwest,5.5,No
2021/01/10,03:40,0.178,0.159,0.260,0.247,0.241,0.142,0.087,northwest,4.6,No
2021/01/10,03:50,0.178,0.161,0.259,0.246,0.241,0.142,0.086,northwest,4.5,No
2021/01/10,04:00,0.178,0.160,0.260,0.246,0.240,0.142,0.086,northwest,3.6,No
2021/01/10,04:10,0.178,0.160,0.260,0.246,0.240,0.142,0.087,west-northwest,3.4,No
2021/01/10,04:20,0.178,0.160,0.260,0.246,0.241,0.142,0.087,west-northwest,2.8,No
2021/01/10,04:30,0.178,0.160,0.260,0.246,0.240,0.142,0.087,west-northwest,3.5,No
2021/01/10,04:40,0.179,0.159,0.261,0.246,0.239,0.142,0.086,west,5.5,No
2021/01/10,04:50,0.179,0.161,0.260,0.245,0.240,0.142,0.086,west,6.0,No
2021/01/10,05:00,0.179,0.161,0.259,0.247,0.240,0.142,0.086,west-northwest,5.4,No
2021/01/10,05:10,0.178,0.161,0.261,0.245,0.240,0.142,0.087,west-northwest,4.9,No
2021/01/10,05:20,0.179,0.160,0.258,0.247,0.240,0.143,0.086,west-northwest,4.5,No
2021/01/10,05:30,0.179,0.161,0.259,0.246,0.241,0.142,0.087,west-northwest,3.6,No
2021/01/10,05:40,0.179,0.161,0.260,0.246,0.241,0.142,0.086,west-northwest,4.0,No
2021/01/10,05:50,0.179,0.160,0.260,0.246,0.239,0.142,0.086,west-northwest,5.0,No
2021/01/10,06:00,0.178,0.160,0.260,0.245,0.241,0.142,0.087,west-northwest,5.1,No
2021/01/10,06:10,0.179,0.160,0.259,0.246,0.239,0.143,0.086,west-northwest,4.5,No
2021/01/10,06:20,0.179,0.160,0.260,0.246,0.241,0.142,0.086,west-northwest,3.0,No
2021/01/10,06:30,0.177,0.160,0.260,0.245,0.239,0.142,0.086,northwest,1.9,No
2021/01/10,06:40,0.178,0.160,0.260,0.247,0.239,0.143,0.086,northwest,1.8,No
2021/01/10,06:50,0.179,0.161,0.259,0.244,0.240,0.142,0.087,north,0.6,No
2021/01/10,07:00,0.179,0.160,0.260,0.246,0.240,0.141,0.087,north,1.8,No
2021/01/10,07:10,0.178,0.160,0.260,0.245,0.239,0.142,0.087,northwest,4.1,No
2021/01/10,07:20,0.179,0.162,0.259,0.246,0.240,0.142,0.087,north-northwest,5.3,No
2021/01/10,07:30,0.179,0.161,0.260,0.246,0.240,0.142,0.087,northwest,5.1,No
2021/01/10,07:40,0.178,0.161,0.259,0.246,0.240,0.142,0.086,northwest,3.7,No
2021/01/10,07:50,0.180,0.161,0.260,0.246,0.241,0.142,0.087,west,3.4,No
2021/01/10,08:00,0.179,0.161,0.260,0.246,0.241,0.142,0.086,west,4.3,No
2021/01/10,08:10,0.179,0.160,0.261,0.245,0.241,0.142,0.086,west,2.1,No
2021/01/10,08:20,0.179,0.159,0.261,0.246,0.241,0.141,0.086,west,2.1,No
2021/01/10,08:30,0.178,0.160,0.259,0.246,0.241,0.141,0.086,west,1.9,No
2021/01/10,08:40,0.178,0.160,0.258,0.244,0.240,0.142,0.085,west-northwest,0.8,No
2021/01/10,08:50,0.179,0.161,0.260,0.245,0.241,0.141,0.085,-,CALM,No
2021/01/10,09:00,0.179,0.160,0.260,0.245,0.240,0.143,0.086,southwest,0.9,No
2021/01/10,09:10,0.179,0.159,0.259,0.246,0.240,0.141,0.087,-,CALM,No
2021/01/10,09:20,0.178,0.160,0.259,0.244,0.241,0.140,0.086,east,0.9,No
2021/01/10,09:30,0.178,0.160,0.258,0.244,0.241,0.141,0.086,east-southeast,1.0,No
2021/01/10,09:40,0.177,0.159,0.259,0.245,0.239,0.141,0.086,east-southeast,1.5,No
2021/01/10,09:50,0.179,0.159,0.259,0.245,0.241,0.142,0.086,east-northeast,1.6,No
2021/01/10,10:00,0.178,0.160,0.259,0.245,0.238,0.142,0.086,east-southeast,1.5,No
2021/01/10,10:10,0.178,0.159,0.259,0.245,0.240,0.141,0.085,east,1.0,No
2021/01/10,10:20,0.178,0.159,0.258,0.246,0.240,0.141,0.086,east-southeast,0.7,No
2021/01/10,10:30,0.177,0.159,0.259,0.246,0.240,0.143,0.086,east,2.2,No
2021/01/10,10:40,0.179,0.158,0.258,0.245,0.241,0.142,0.087,east-southeast,1.7,No
2021/01/10,10:50,0.178,0.160,0.258,0.247,0.239,0.142,0.087,southeast,2.6,No
2021/01/10,11:00,0.177,0.159,0.258,0.246,0.240,0.142,0.085,southeast,2.5,No
2021/01/10,11:10,0.177,0.159,0.257,0.247,0.239,0.142,0.087,east-southeast,2.7,No
2021/01/10,11:20,0.179,0.160,0.259,0.246,0.242,0.142,0.087,east-southeast,2.5,No
2021/01/10,11:30,0.178,0.159,0.260,0.246,0.240,0.142,0.086,southeast,2.6,No
2021/01/10,11:40,0.177,0.159,0.258,0.246,0.240,0.142,0.086,east-southeast,2.1,No
2021/01/10,11:50,0.177,0.161,0.259,0.245,0.241,0.142,0.087,southeast,2.0,No
2021/01/10,12:00,0.179,0.160,0.259,0.246,0.240,0.142,0.085,west-southwest,4.3,No
2021/01/10,12:10,0.178,0.160,0.259,0.248,0.241,0.142,0.086,west,5.6,No
2021/01/10,12:20,0.177,0.159,0.258,0.246,0.240,0.143,0.086,west-northwest,6.8,No
2021/01/10,12:30,0.179,0.161,0.260,0.245,0.239,0.142,0.085,west-northwest,9.0,No
2021/01/10,12:40,0.177,0.159,0.260,0.246,0.241,0.143,0.086,west-northwest,5.9,No
2021/01/10,12:50,0.178,0.159,0.259,0.246,0.239,0.143,0.087,west,7.0,No
2021/01/10,13:00,0.178,0.161,0.259,0.245,0.240,0.141,0.086,west-southwest,8.8,No
2021/01/10,13:10,0.177,0.159,0.260,0.247,0.242,0.143,0.087,west,7.5,No
2021/01/10,13:20,0.178,0.159,0.260,0.245,0.241,0.142,0.086,west-northwest,6.3,No
2021/01/10,13:30,0.177,0.159,0.259,0.246,0.241,0.143,0.086,west-northwest,8.7,No
2021/01/10,13:40,0.177,0.159,0.261,0.245,0.242,0.142,0.086,west-northwest,9.0,No
2021/01/10,13:50,0.178,0.160,0.261,0.246,0.241,0.142,0.086,west-northwest,7.4,No
2021/01/10,14:00,0.178,0.162,0.261,0.247,0.240,0.142,0.086,west-northwest,7.1,No
2021/01/10,14:10,0.178,0.160,0.260,0.247,0.242,0.142,0.085,west-northwest,9.6,No
2021/01/10,14:20,0.179,0.160,0.261,0.247,0.240,0.142,0.086,west-northwest,9.5,No
2021/01/10,14:30,0.180,0.162,0.260,0.246,0.240,0.143,0.086,northwest,6.8,No
2021/01/10,14:40,0.180,0.160,0.262,0.246,0.241,0.143,0.087,west-northwest,7.0,No
2021/01/10,14:50,0.178,0.160,0.261,0.246,0.240,0.142,0.087,west-northwest,8.8,No
2021/01/10,15:00,0.178,0.159,0.261,0.246,0.241,0.143,0.087,west-northwest,7.3,No
2021/01/10,15:10,0.178,0.160,0.260,0.246,0.241,0.142,0.086,west-northwest,8.5,No
2021/01/10,15:20,0.179,0.161,0.261,0.246,0.240,0.143,0.085,west-northwest,9.2,No
2021/01/10,15:30,0.179,0.161,0.262,0.247,0.240,0.142,0.087,west-northwest,9.2,No
2021/01/10,15:40,0.178,0.161,0.261,0.248,0.241,0.142,0.086,west-northwest,8.5,No
2021/01/10,15:50,0.179,0.160,0.262,0.247,0.241,0.142,0.087,west-northwest,6.3,No
2021/01/10,16:00,0.179,0.160,0.261,0.246,0.241,0.142,0.086,west-northwest,2.6,No
2021/01/10,16:10,0.180,0.161,0.261,0.247,0.240,0.143,0.086,west,3.7,No
2021/01/10,16:20,0.180,0.160,0.261,0.247,0.241,0.143,0.087,west-southwest,5.9,No
2021/01/10,16:30,0.178,0.161,0.261,0.247,0.241,0.142,0.086,west-southwest,5.8,No
2021/01/10,16:40,0.178,0.161,0.260,0.247,0.242,0.142,0.085,west,6.0,No
2021/01/10,16:50,0.179,0.161,0.262,0.247,0.241,0.142,0.087,west-northwest,4.5,No
2021/01/10,17:00,0.179,0.160,0.261,0.246,0.240,0.142,0.086,west-northwest,5.4,No
2021/01/10,17:10,0.180,0.160,0.259,0.245,0.240,0.143,0.086,west-northwest,4.2,No
2021/01/10,17:20,0.178,0.161,0.259,0.247,0.241,0.142,0.086,west-northwest,4.8,No
2021/01/10,17:30,0.178,0.160,0.261,0.246,0.241,0.142,0.087,northwest,3.5,No
2021/01/10,17:40,0.179,0.161,0.261,0.247,0.240,0.143,0.086,northwest,3.3,No
2021/01/10,17:50,0.179,0.160,0.261,0.246,0.240,0.141,0.086,northwest,4.5,No
2021/01/10,18:00,0.178,0.160,0.260,0.247,0.241,0.142,0.087,west-northwest,3.2,No
2021/01/10,18:10,0.178,0.161,0.260,0.246,0.241,0.142,0.086,west-northwest,3.6,No
2021/01/10,18:20,0.179,0.160,0.260,0.246,0.240,0.143,0.086,west-northwest,3.6,No
2021/01/10,18:30,0.179,0.161,0.261,0.245,0.240,0.142,0.087,northwest,3.8,No
2021/01/10,18:40,0.179,0.160,0.260,0.246,0.240,0.142,0.087,northwest,4.7,No
2021/01/10,18:50,0.177,0.161,0.260,0.245,0.241,0.142,0.086,northwest,4.0,No
2021/01/10,19:00,0.178,0.161,0.261,0.247,0.241,0.142,0.087,west-northwest,3.5,No
2021/01/10,19:10,0.181,0.160,0.260,0.247,0.241,0.142,0.087,northwest,3.2,No
2021/01/10,19:20,0.179,0.161,0.261,0.247,0.242,0.142,0.087,west-northwest,3.8,No
2021/01/10,19:30,0.178,0.161,0.261,0.247,0.240,0.142,0.087,west-northwest,3.6,No
2021/01/10,19:40,0.179,0.161,0.258,0.247,0.241,0.142,0.086,northwest,3.5,No
2021/01/10,19:50,0.180,0.160,0.260,0.247,0.240,0.142,0.087,northwest,3.8,No
2021/01/10,20:00,0.179,0.160,0.260,0.247,0.240,0.142,0.086,northwest,4.8,No
2021/01/10,20:10,0.180,0.160,0.261,0.248,0.242,0.142,0.086,northwest,6.2,No
2021/01/10,20:20,0.179,0.160,0.259,0.246,0.242,0.143,0.087,northwest,6.5,No
2021/01/10,20:30,0.179,0.160,0.261,0.248,0.242,0.143,0.086,northwest,6.1,No
2021/01/10,20:40,0.180,0.161,0.260,0.247,0.240,0.142,0.086,northwest,6.8,No
2021/01/10,20:50,0.180,0.160,0.261,0.248,0.240,0.143,0.087,northwest,6.8,No
2021/01/10,21:00,0.180,0.161,0.261,0.248,0.241,0.143,0.087,northwest,6.2,No
2021/01/10,21:10,0.179,0.160,0.261,0.247,0.240,0.142,0.086,northwest,5.0,No
2021/01/10,21:20,0.179,0.161,0.260,0.247,0.241,0.143,0.087,northwest,2.8,No
2021/01/10,21:30,0.179,0.161,0.260,0.246,0.240,0.141,0.087,west-northwest,2.5,No
2021/01/10,21:40,0.179,0.160,0.261,0.246,0.240,0.142,0.086,west-southwest,2.1,No
2021/01/10,21:50,0.179,0.161,0.261,0.246,0.241,0.142,0.086,west,3.1,No
2021/01/10,22:00,0.179,0.160,0.260,0.247,0.240,0.142,0.086,west-northwest,3.1,No
2021/01/10,22:10,0.180,0.160,0.261,0.246,0.240,0.142,0.087,west,5.0,No
2021/01/10,22:20,0.179,0.161,0.261,0.247,0.241,0.142,0.086,west-northwest,3.6,No
2021/01/10,22:30,0.180,0.160,0.259,0.246,0.241,0.142,0.086,west-northwest,2.2,No
2021/01/10,22:40,0.180,0.160,0.261,0.246,0.240,0.142,0.086,west-northwest,4.8,No
2021/01/10,22:50,0.179,0.160,0.261,0.248,0.241,0.143,0.087,west-northwest,4.3,No
2021/01/10,23:00,0.178,0.160,0.259,0.246,0.239,0.142,0.086,west-northwest,2.8,No
2021/01/10,23:10,0.178,0.161,0.260,0.247,0.240,0.143,0.087,west-northwest,3.2,No
2021/01/10,23:20,0.179,0.160,0.259,0.246,0.241,0.142,0.086,west,1.6,No
2021/01/10,23:30,0.179,0.160,0.260,0.246,0.240,0.142,0.087,west,4.0,No
2021/01/10,23:40,0.178,0.159,0.261,0.247,0.240,0.142,0.086,west,4.8,No
2021/01/10,23:50,0.180,0.159,0.261,0.246,0.240,0.142,0.087,west,4.2,No
